Regional Weather Roundup
Issued by NWS

Home | Current Version | Previous Version | Graphics & Text | Print | Product List | Glossary On
Versions: 1 2 3 4 5 6 7 8 9 10 11 12 13 14 15 16 17 18 19 20 21 22 23 24 25 26 27 28 29 30 31 32 33 34 35 36 37 38 39 40 41 42 43 44 45 46 47 48 49 50
000
ASUS45 KABQ 310810
RWRNM
WEATHER ROUNDUP FOR NEW MEXICO
NATIONAL WEATHER SERVICE ALBUQUERQUE NM
100 AM MST SAT JAN 31 2015

NOTE: "FAIR" MEANS FEW OR NO CLOUDS BELOW 12,000 FEET AGL WITH NO
       SIGNIFICANT WEATHER OR OBSTRUCTIONS TO VISION.

      THIS PRODUCT IS RELEASED AS TWO VERSIONS.  ONE VERSION NEAR
      THE TOP OF THE HOUR CONTAINING PRELIMINARY DATA FROM ALBUQUERQUE
      AND OTHER STATIONS.  A FINAL VERSION WITH ADDITIONAL DATA IS
      ISSUED ABOUT 10 MINUTES AFTER THE HOUR.

NMZ501-503-504-510>518-310900-
NORTHWEST PLATEAU/NORTHCENTRAL MOUNTAINS

CITY           SKY/WX    TMP DP  RH WIND       PRES   REMARKS
FARMINGTON     LGT SNOW  33  32  96 E7        29.94F FOG     WCI  27
LOS ALAMOS     LGT SNOW  28  28 100 S7        30.01F WCI  21
SANTA FE       CLOUDY    30  26  85 S8        30.01F WCI  22
TAOS           CLOUDY    28  27  93 CALM      30.02F
ANGEL FIRE     LGT SNOW  31  29  93 CALM      29.95F

$$
NMZ402-403-502-505>509-310900-
WESTCENTRAL MOUNTAINS/SOUTHWEST MOUNTAINS

CITY           SKY/WX    TMP DP  RH WIND       PRES   REMARKS
GALLUP         LGT SNOW  32  31  96 CALM      29.93F FOG
GRANTS         LGT SNOW  32  32  99 S13       29.96F WCI  22
SILVER CITY    LGT RAIN  41  41 100 SE3       29.96F

$$
NMZ407-409-411-412-310900-
SOUTHERN DESERTS

CITY           SKY/WX    TMP DP  RH WIND       PRES   REMARKS
LORDSBURG      LGT RAIN  43  41  93 S7        29.93F
DEMING         RAIN      42  42 100 E8        29.95S FOG
LAS CRUCES     CLOUDY    41  40  96 SE10      29.96F
HOLLOMAN AFB   LGT RAIN  42  42 100 CALM      29.97F
ALAMOGORDO     LGT RAIN  41  41 100 N12       29.98F
T OR C         LGT RAIN  40  40 100 NE5       29.95F

$$
NMZ519>523-310900-
CENTRAL VALLEYS/CENTRAL HIGHLANDS

CITY           SKY/WX    TMP DP  RH WIND       PRES   REMARKS
ALBUQUERQUE    CLOUDY    35  32  88 N5        29.99F WCI  31
DOUBLE EAGLE   MIX PCPN  32  30  94 N12       29.99F WCI  23
MORIARTY ARPT  CLOUDY    30  28  93 E3        30.04F FOG
CLINES CORNERS CLOUDY    27  25  92 E7        30.00S FOG     WCI  19
BELEN          DRIZZLE   34  34 100 NW6       30.00F WCI  29
SOCORRO        RAIN      39  39  99 CALM      29.98F VSB 1/2

$$
NMZ524>526-539-540-310900-
SOUTHCENTRAL MOUNTAINS

CITY           SKY/WX    TMP DP  RH WIND       PRES   REMARKS
RUIDOSO        LGT RAIN  28  28 100 SE7       30.03F VSB<1/4 WCI  21

$$
NMZ527>531-310900-
NORTHEAST HIGHLANDS/NORTHEAST PLAINS

CITY           SKY/WX    TMP DP  RH WIND       PRES   REMARKS
LAS VEGAS      LGT SNOW  26  25  96 S5        30.02F FOG     WCI  20
RATON          CLOUDY    28  28 100 SW3       30.02F
CLAYTON        FRZ RAIN  33  31  92 SW15      30.06F WCI  23

$$
NMZ532>537-310900-
EASTCENTRAL PLAINS

CITY           SKY/WX    TMP DP  RH WIND       PRES   REMARKS
TUCUMCARI      LGT RAIN  35  33  92 CALM      30.10F FOG
CANNON AFB     CLOUDY    34  32  93 SE12      30.10F WCI  25
CLOVIS AIRPORT CLOUDY    34  30  86 S13       30.12F WCI  25

$$
NMZ028-029-538-310900-
SOUTHEAST PLAINS

CITY           SKY/WX    TMP DP  RH WIND       PRES   REMARKS
ROSWELL        CLOUDY    38  36  92 E3        30.08F
ARTESIA        DRIZZLE   37  37 100 NE6       30.09F WCI  33
CARLSBAD       LGT RAIN  40  37  89 NE7       30.07F FOG
HOBBS          LGT RAIN  37  37 100 E9        30.11F WCI  31


$$



USA.gov is the U.S. government's official web portal to all federal, state and local government web resources and services.